Flag for France Weather past 2 weeks in Nancy, France

Now
66 °F

Broken clouds.


Feels Like: 66 °F
Forecast: 54 / 87 °F
Wind: 13 mph from South

Location: Nancy / Ochey

Current Time: Aug 4, 2015 at 12:37:38 PM

Latest Report: Aug 4, 2015 at 12:00 PM


Visibility: N/A

Pressure: 30.04 "Hg

Humidity: 94%

Dew point: 64 °F

Location of NancyLocation

Historic Weather in Nancy — Graph

°F

Nancy temperature yesterday

Maximum temperature yesterday: 93 °F (at 4:30 PM)
Minimum temperature yesterday: 61 °F (at 6:00 AM)
Average temperature yesterday: 78 °F

Past Weeks' High & Low Weather Summary

 TemperatureHumidityPressure
High93 °F (Jul 21, 6:30 PM)100% (Jul 29, 7:00 AM)30.12 "Hg (Jul 29, 7:00 AM)
Low43 °F (Jul 31, 6:00 AM)19% (Aug 3, 6:00 PM)29.71 "Hg (Jul 24, 6:00 PM)
Average67 °F57%29.96 "Hg
* Reported Jul 20 11:00 AM — Aug 4 11:30 AM, Nancy, Weather by CustomWeather, © 2015

Note: Actual official high and low records may vary slightly from our data, if they occured in-between our weather recording intervals... More about our weather records

Advertising

Nancy weather history for previous 24 hours

 ConditionsComfort  
Time TempWeatherWind HumidityBarometerVisibility
11:30 AM
Tue, Aug 4
66 °FPartly sunny.12 mph94%30.01 "HgN/A
11:00 AM64 °FBroken clouds.8 mph94%30.01 "HgN/A
10:30 AM64 °FRain. Broken clouds.9 mph94%30.01 "Hg5 mi
10:00 AM64 °FLight rain. Mostly cloudy.9 mph94%30.01 "HgN/A
9:30 AM64 °FLight rain. Mostly cloudy.7 mph94%30.01 "HgN/A
9:00 AM64 °FLight rain. More clouds than sun.9 mph94%29.98 "Hg4 mi
8:30 AM64 °FRain. Partly sunny.9 mph88%29.98 "HgN/A
8:00 AM64 °FLight rain. More clouds than sun.12 mph88%29.95 "HgN/A
7:30 AM66 °FRain. Cloudy.14 mph78%29.98 "HgN/A
7:00 AM66 °FLight rain. Overcast.6 mph78%29.95 "HgN/A
6:30 AM68 °FLight rain. Overcast.16 mph69%29.92 "HgN/A
6:00 AM75 °FMild.9 mph47%29.92 "HgN/A
5:00 AM70 °FClear.9 mph53%29.89 "Hg10 mi
4:30 AM70 °FClear.8 mph53%29.89 "Hg10 mi
4:00 AM70 °FClear.6 mph50%29.89 "Hg10 mi
3:30 AM70 °FClear.7 mph50%29.89 "Hg10 mi
3:00 AM68 °FClear.8 mph56%29.89 "Hg10 mi
2:30 AM70 °FClear.6 mph50%29.92 "Hg10 mi
2:00 AM72 °FClear.7 mph47%29.92 "Hg10 mi
1:30 AM73 °FClear.8 mph44%29.92 "Hg10 mi
1:00 AM73 °FClear.9 mph44%29.95 "Hg10 mi
12:30 AM75 °FClear.6 mph44%29.95 "Hg10 mi
12:00 AM75 °FClear.6 mph44%29.95 "Hg10 mi
11:30 PM
Mon, Aug 3
73 °FClear.2 mph50%29.95 "Hg10 mi
11:00 PM73 °FClear.No wind50%29.95 "Hg10 mi
10:30 PM77 °FClear.2 mph44%29.95 "Hg10 mi
10:00 PM79 °FSunny.3 mph42%29.95 "Hg10 mi
9:30 PM82 °FSunny.2 mph35%29.95 "Hg10 mi
9:00 PM84 °FSunny.2 mph31%29.95 "Hg10 mi
8:30 PM88 °FSunny.7 mph27%29.95 "Hg10 mi
8:00 PM90 °FSunny.7 mph24%29.95 "Hg10 mi
7:30 PM91 °FSunny.3 mph23%29.95 "Hg10 mi
7:00 PM93 °FPassing clouds.5 mph20%29.95 "HgN/A
6:30 PM93 °FSunny.3 mph20%29.95 "Hg10 mi
6:00 PM93 °FPassing clouds.6 mph19%29.98 "HgN/A
5:30 PM93 °FSunny.2 mph20%29.98 "Hg10 mi
5:00 PM93 °FPassing clouds.6 mph21%29.98 "HgN/A
4:30 PM93 °FPassing clouds.9 mph21%29.98 "HgN/A
4:00 PM91 °FSunny.5 mph24%29.98 "Hg10 mi
3:30 PM91 °FSunny.2 mph26%30.01 "Hg10 mi
3:00 PM91 °FPassing clouds.12 mph26%30.01 "HgN/A
2:30 PM91 °FPassing clouds.6 mph26%30.01 "HgN/A
2:00 PM90 °FPassing clouds.8 mph27%30.01 "HgN/A
1:30 PM90 °FPassing clouds.9 mph26%30.01 "HgN/A
1:00 PM88 °FPassing clouds.7 mph29%30.04 "HgN/A
12:30 PM88 °FPassing clouds.7 mph31%30.04 "HgN/A
12:00 PM86 °FPassing clouds.8 mph33%30.04 "HgN/A
Weather by CustomWeather, © 2015

See weather overviewHow to use our weather pages